WXM80 ListenWXM80 Stop

You find our weather info also at:

UK Metoffice

WeatherCloud

Weather Underground

Northeastern Weather Network

AWEKAS

Citizen Weather Observer Program (CWOP)

HAMweather, WeatherForYou, PWS Weather


Weather Underground History page Text

Daily Summary for January 8, 2018 Units:  English    Metric   Both
« Previous Day
Next Day »
Daily Weekly Monthly Yearly Custom
  High: Low: Average:
Temperature: TemperatureF °F 17.4 °F 29.1 °F
Dew Point: DewpointF °F 7.1 °F 21.1 °F
Humidity: Humidity % 51 % 72 %
Wind Speed: WindSpeedMPH mph 0.0 mph 3.6 mph
Wind Gust: WindSpeedGustMPH mph - -
Wind:- - SW
Pressure: PressureIn in 29.77 in -
Precipitation: 0.00 in    
Historical Graphs
 
 
Tabular Data for January 8, 2018
Time Temperature Dew Point Pressure Wind Wind Speed Wind Gust Humidity Rainfall Rate (Hourly)
TemperatureF °F DewpointF °F PressureIn in Calm     Humidity % HourlyPrecipIn in
00:08 17.6 °F 7.1 °F 30.36 in SSW 2.6 mph 16.1 mph 63 % 0.00 in
00:37 17.4 °F 7.3 °F 30.35 in SW 5.3 mph 13.0 mph 64 % 0.00 in
01:23 18.3 °F 8.5 °F 30.34 in SW 5.0 mph 18.4 mph 65 % 0.00 in
02:35 19.3 °F 9.4 °F 30.34 in SW 5.3 mph 18.4 mph 65 % 0.00 in
03:18 20.0 °F 9.8 °F 30.32 in SW 6.1 mph 15.0 mph 64 % 0.00 in
03:51 20.3 °F 9.7 °F 30.31 in SSW 2.2 mph 12.7 mph 63 % 0.00 in
03:53 20.3 °F 9.7 °F 30.31 in SW 4.2 mph 7.0 mph 63 % 0.00 in
04:04 20.4 °F 9.8 °F 30.31 in SW 4.2 mph 11.5 mph 63 % 0.00 in
04:15 20.4 °F 9.8 °F 30.30 in SSW 5.7 mph 10.4 mph 63 % 0.00 in
04:18 20.5 °F 9.9 °F 30.30 in SSW 4.9 mph 12.0 mph 63 % 0.00 in
04:20 20.5 °F 9.9 °F 30.30 in SSW 3.1 mph 10.4 mph 63 % 0.00 in
04:25 20.5 °F 9.9 °F 30.30 in SW 2.0 mph 11.5 mph 63 % 0.00 in
04:30 20.6 °F 10.3 °F 30.30 in SW 5.7 mph 8.0 mph 64 % 0.00 in
04:34 20.5 °F 10.2 °F 30.30 in SW 6.2 mph 12.7 mph 64 % 0.00 in
04:40 20.6 °F 10.3 °F 30.30 in SSW 3.4 mph 5.0 mph 64 % 0.00 in
04:43 20.6 °F 10.3 °F 30.30 in South 2.7 mph 6.0 mph 64 % 0.00 in
04:44 20.6 °F 10.3 °F 30.30 in WSW 4.8 mph 6.9 mph 64 % 0.00 in
04:49 20.6 °F 10.3 °F 30.30 in South 5.6 mph 10.4 mph 64 % 0.00 in
04:55 20.6 °F 10.7 °F 30.30 in SW 4.1 mph 7.0 mph 65 % 0.00 in
04:59 20.6 °F 10.3 °F 30.30 in SW 4.5 mph 10.4 mph 64 % 0.00 in
05:04 20.6 °F 10.7 °F 30.30 in WSW 3.3 mph 5.8 mph 65 % 0.00 in
05:09 20.4 °F 10.1 °F 30.30 in SSW 6.0 mph 10.4 mph 64 % 0.00 in
05:14 20.4 °F 10.1 °F 30.29 in SSW 4.2 mph 6.9 mph 64 % 0.00 in
05:20 20.3 °F 10.1 °F 30.29 in SSW 4.6 mph 8.1 mph 64 % 0.00 in
05:22 20.2 °F 10.0 °F 30.30 in SSW 4.3 mph 9.2 mph 64 % 0.00 in
05:28 20.1 °F 10.2 °F 30.30 in SSW 3.8 mph 8.1 mph 65 % 0.00 in
05:33 20.0 °F 10.1 °F 30.30 in SSW 3.2 mph 6.9 mph 65 % 0.00 in
05:38 19.9 °F 10.0 °F 30.30 in SSW 3.5 mph 5.8 mph 65 % 0.00 in
05:43 19.9 °F 10.4 °F 30.30 in SSW 2.3 mph 5.0 mph 66 % 0.00 in
05:48 19.8 °F 10.3 °F 30.30 in SSW 2.7 mph 6.9 mph 66 % 0.00 in
05:53 19.7 °F 10.5 °F 30.30 in SSW 4.4 mph 8.0 mph 67 % 0.00 in
05:58 19.6 °F 10.4 °F 30.30 in SSW 5.9 mph 10.4 mph 67 % 0.00 in
06:04 19.5 °F 10.3 °F 30.31 in SW 5.9 mph 11.5 mph 67 % 0.00 in
06:09 19.5 °F 10.3 °F 30.31 in SW 0.9 mph 5.8 mph 67 % 0.00 in
06:15 19.4 °F 10.6 °F 30.30 in SSW 2.6 mph 6.9 mph 68 % 0.00 in
06:20 19.4 °F 10.6 °F 30.29 in SW 4.2 mph 6.0 mph 68 % 0.00 in
06:27 19.3 °F 10.5 °F 30.30 in SSW 2.0 mph 4.6 mph 68 % 0.00 in
06:32 19.3 °F 10.5 °F 30.29 in SW 1.5 mph 4.0 mph 68 % 0.00 in
06:37 19.2 °F 10.4 °F 30.30 in South 5.3 mph 10.4 mph 68 % 0.00 in
06:43 19.2 °F 10.4 °F 30.29 in SSW 5.5 mph 8.1 mph 68 % 0.00 in
06:48 19.2 °F 10.7 °F 30.29 in SW 5.1 mph 9.2 mph 69 % 0.00 in
06:55 19.2 °F 10.7 °F 30.29 in SSW 5.5 mph 9.2 mph 69 % 0.00 in
07:00 19.2 °F 10.7 °F 30.29 in SSW 3.3 mph 5.8 mph 69 % 0.00 in
07:04 19.2 °F 10.7 °F 30.28 in SW 2.5 mph 5.8 mph 69 % 0.00 in
07:07 19.2 °F 10.7 °F 30.28 in SSW 3.5 mph 5.8 mph 69 % 0.00 in
07:13 19.2 °F 10.7 °F 30.28 in SSW 2.4 mph 6.0 mph 69 % 0.00 in
07:15 19.2 °F 10.7 °F 30.28 in SW 2.6 mph 6.9 mph 69 % 0.00 in
07:20 19.3 °F 11.1 °F 30.29 in SW 1.2 mph 5.8 mph 70 % 0.00 in
07:23 19.2 °F 11.0 °F 30.29 in SW 4.7 mph 7.0 mph 70 % 0.00 in
07:29 19.3 °F 11.1 °F 30.28 in SW 3.0 mph 5.8 mph 70 % 0.00 in
07:36 19.4 °F 11.2 °F 30.28 in SW 2.3 mph 4.6 mph 70 % 0.00 in
07:43 19.5 °F 11.3 °F 30.28 in SW 2.1 mph 4.0 mph 70 % 0.00 in
07:48 19.7 °F 11.5 °F 30.28 in SSW 1.8 mph 4.6 mph 70 % 0.00 in
07:53 19.9 °F 12.0 °F 30.28 in SW 4.3 mph 8.0 mph 71 % 0.00 in
07:58 20.2 °F 12.0 °F 30.27 in SW 0.9 mph 9.2 mph 70 % 0.00 in
08:04 20.4 °F 12.2 °F 30.26 in SW 3.2 mph 5.0 mph 70 % 0.00 in
08:10 20.7 °F 12.5 °F 30.26 in West 5.0 mph 8.0 mph 70 % 0.00 in
08:18 21.1 °F 12.8 °F 30.25 in SW 3.5 mph 6.0 mph 70 % 0.00 in
08:23 21.4 °F 12.8 °F 30.25 in SSW 2.5 mph 6.9 mph 69 % 0.00 in
08:29 21.7 °F 13.1 °F 30.26 in SW 1.7 mph 4.0 mph 69 % 0.00 in
08:34 22.0 °F 13.4 °F 30.25 in SW 4.4 mph 7.0 mph 69 % 0.00 in
08:39 22.3 °F 13.7 °F 30.26 in WSW 3.8 mph 7.0 mph 69 % 0.00 in
08:45 22.6 °F 13.6 °F 30.25 in SW 4.1 mph 8.0 mph 68 % 0.00 in
08:49 22.9 °F 13.6 °F 30.26 in SW 3.3 mph 6.9 mph 67 % 0.00 in
08:54 23.3 °F 14.0 °F 30.25 in SSW 3.7 mph 8.1 mph 67 % 0.00 in
08:56 23.5 °F 14.1 °F 30.26 in SW 4.3 mph 7.0 mph 67 % 0.00 in
09:02 23.8 °F 14.1 °F 30.26 in SW 4.7 mph 6.0 mph 66 % 0.00 in
09:07 24.0 °F 13.9 °F 30.25 in SW 2.5 mph 6.9 mph 65 % 0.00 in
09:12 24.2 °F 14.1 °F 30.25 in SW 3.9 mph 6.0 mph 65 % 0.00 in
09:18 24.4 °F 14.0 °F 30.25 in SW 4.6 mph 6.9 mph 64 % 0.00 in
09:24 24.8 °F 14.0 °F 30.25 in SSW 2.9 mph 8.1 mph 63 % 0.00 in
09:35 25.5 °F 14.3 °F 30.25 in West 2.6 mph 9.2 mph 62 % 0.00 in
09:41 25.8 °F 14.6 °F 30.25 in South 3.2 mph 5.8 mph 62 % 0.00 in
09:47 26.3 °F 14.3 °F 30.24 in SSW 8.0 mph 15.0 mph 60 % 0.00 in
09:54 26.7 °F 13.9 °F 30.25 in WSW 5.1 mph 10.4 mph 58 % 0.00 in
10:00 27.1 °F 14.3 °F 30.25 in WSW 3.4 mph 12.7 mph 58 % 0.00 in
10:05 27.3 °F 14.5 °F 30.24 in West 3.9 mph 8.1 mph 58 % 0.00 in
10:11 27.6 °F 14.7 °F 30.24 in SW 7.0 mph 14.0 mph 58 % 0.00 in
10:17 27.8 °F 14.5 °F 30.24 in SW 5.1 mph 8.1 mph 57 % 0.00 in
10:24 28.0 °F 14.7 °F 30.23 in West 1.1 mph 6.9 mph 57 % 0.00 in
10:30 28.2 °F 14.5 °F 30.23 in SW 5.6 mph 9.0 mph 56 % 0.00 in
10:35 28.4 °F 14.7 °F 30.23 in West 2.0 mph 9.2 mph 56 % 0.00 in
10:45 28.9 °F 15.2 °F 30.22 in West 3.0 mph 6.0 mph 56 % 0.00 in
10:53 29.2 °F 15.4 °F 30.22 in WSW 4.8 mph 7.0 mph 56 % 0.00 in
10:59 29.6 °F 15.8 °F 30.21 in West 1.3 mph 5.0 mph 56 % 0.00 in
11:06 29.9 °F 15.3 °F 30.21 in SSW 7.4 mph 13.8 mph 54 % 0.00 in
11:12 30.2 °F 15.5 °F 30.21 in WSW 5.5 mph 10.4 mph 54 % 0.00 in
11:18 30.5 °F 15.4 °F 30.20 in SW 4.7 mph 13.0 mph 53 % 0.00 in
11:24 30.6 °F 15.9 °F 30.20 in WSW 1.5 mph 11.5 mph 54 % 0.00 in
11:29 30.8 °F 15.7 °F 30.20 in SW 5.0 mph 13.8 mph 53 % 0.00 in
11:34 31.0 °F 15.8 °F 30.19 in SW 7.4 mph 12.0 mph 53 % 0.00 in
11:35 31.0 °F 15.8 °F 29.95 in SSW 5.9 mph 13.8 mph 53 % 0.00 in
11:40 31.2 °F 16.0 °F 30.18 in SSW 3.4 mph 8.1 mph 53 % 0.00 in
11:46 31.3 °F 16.6 °F 30.18 in SW 5.0 mph 12.0 mph 54 % 0.00 in
11:51 31.5 °F 16.7 °F 30.17 in SSW 3.0 mph 10.0 mph 54 % 0.00 in
11:56 31.7 °F 16.9 °F 30.17 in SSW 6.1 mph 12.7 mph 54 % 0.00 in
12:01 31.9 °F 17.5 °F 30.16 in WSW 5.7 mph 13.0 mph 55 % 0.00 in
12:02 31.9 °F 17.5 °F 30.16 in SW 7.9 mph 7.9 mph 55 % 0.00 in
12:07 32.1 °F 17.3 °F 30.15 in SSW 7.7 mph 11.5 mph 54 % 0.00 in
12:12 32.1 °F 16.9 °F 30.15 in SW 6.6 mph 11.0 mph 53 % 0.00 in
12:17 32.1 °F 16.9 °F 30.15 in SSW 5.0 mph 11.5 mph 53 % 0.00 in
12:23 32.2 °F 16.5 °F 30.14 in WSW 6.8 mph 12.7 mph 52 % 0.00 in
12:26 32.2 °F 16.5 °F 30.14 in WSW 5.2 mph 7.0 mph 52 % 0.00 in
12:31 32.3 °F 16.6 °F 30.14 in SW 5.6 mph 10.4 mph 52 % 0.00 in
12:35 32.2 °F 16.1 °F 30.14 in SSW 5.2 mph 9.2 mph 51 % 0.00 in
12:40 32.1 °F 16.0 °F 30.14 in SW 10.0 mph 15.0 mph 51 % 0.00 in
12:45 32.0 °F 15.9 °F 30.14 in SSW 8.1 mph 11.5 mph 51 % 0.00 in
12:50 31.8 °F 16.2 °F 30.13 in SW 6.7 mph 12.0 mph 52 % 0.00 in
12:53 31.7 °F 15.6 °F 30.13 in South 6.3 mph 11.5 mph 51 % 0.00 in
12:58 31.6 °F 16.0 °F 30.12 in WSW 8.7 mph 18.4 mph 52 % 0.00 in
13:00 31.5 °F 15.4 °F 30.12 in WSW 9.5 mph 13.8 mph 51 % 0.00 in
13:05 31.4 °F 15.8 °F 30.12 in SSW 9.2 mph 15.0 mph 52 % 0.00 in
13:08 31.4 °F 15.8 °F 30.12 in SSW 4.7 mph 8.1 mph 52 % 0.00 in
13:13 31.4 °F 16.2 °F 30.11 in South 3.8 mph 11.5 mph 53 % 0.00 in
13:15 31.4 °F 16.7 °F 30.10 in SSW 4.3 mph 7.0 mph 54 % 0.00 in
13:20 31.4 °F 16.7 °F 30.10 in South 4.2 mph 8.1 mph 54 % 0.00 in
13:23 31.4 °F 16.7 °F 30.10 in South 7.2 mph 12.0 mph 54 % 0.00 in
13:28 31.3 °F 17.0 °F 30.10 in SSW 2.2 mph 4.6 mph 55 % 0.00 in
13:34 31.4 °F 17.5 °F 30.10 in SW 5.3 mph 8.1 mph 56 % 0.00 in
13:39 31.5 °F 17.6 °F 30.09 in SW 4.8 mph 11.5 mph 56 % 0.00 in
13:44 31.6 °F 17.7 °F 30.08 in SSW 6.3 mph 7.0 mph 56 % 0.00 in
13:49 31.7 °F 18.2 °F 30.09 in SW 5.9 mph 11.5 mph 57 % 0.00 in
13:54 31.8 °F 18.3 °F 30.09 in South 5.6 mph 6.9 mph 57 % 0.00 in
13:59 31.9 °F 18.4 °F 30.09 in SSW 5.7 mph 9.2 mph 57 % 0.00 in
14:04 31.8 °F 18.3 °F 30.09 in SW 8.7 mph 15.0 mph 57 % 0.00 in
14:06 31.8 °F 18.3 °F 30.08 in SSW 5.3 mph 9.2 mph 57 % 0.00 in
14:10 31.7 °F 18.2 °F 30.09 in SW 3.5 mph 5.8 mph 57 % 0.00 in
14:15 31.7 °F 18.6 °F 30.09 in SW 3.9 mph 10.4 mph 58 % 0.00 in
14:21 31.7 °F 18.6 °F 30.08 in SSW 7.0 mph 15.0 mph 58 % 0.00 in
14:26 31.7 °F 18.6 °F 30.08 in SSW 6.0 mph 10.0 mph 58 % 0.00 in
14:28 31.7 °F 19.0 °F 30.07 in South 2.9 mph 5.0 mph 59 % 0.00 in
14:34 31.8 °F 19.1 °F 30.07 in WSW 4.4 mph 9.0 mph 59 % 0.00 in
14:37 31.8 °F 19.1 °F 30.07 in SSW 2.0 mph 3.5 mph 59 % 0.00 in
14:43 31.9 °F 19.6 °F 30.07 in South 2.3 mph 4.6 mph 60 % 0.00 in
14:49 32.0 °F 19.7 °F 30.07 in SSW 3.4 mph 5.8 mph 60 % 0.00 in
14:54 32.1 °F 19.8 °F 30.06 in SSW 8.1 mph 11.5 mph 60 % 0.00 in
14:59 32.2 °F 19.9 °F 30.06 in SSW 1.4 mph 3.5 mph 60 % 0.00 in
15:05 32.3 °F 20.0 °F 30.05 in SW 3.3 mph 10.4 mph 60 % 0.00 in
15:10 32.4 °F 20.4 °F 30.04 in SSW 3.1 mph 6.9 mph 61 % 0.00 in
15:16 32.5 °F 20.1 °F 30.04 in South 5.3 mph 8.1 mph 60 % 0.00 in
15:21 32.6 °F 20.6 °F 30.04 in SSW 3.6 mph 7.0 mph 61 % 0.00 in
15:26 32.7 °F 20.7 °F 30.05 in SW 6.4 mph 10.4 mph 61 % 0.00 in
15:33 32.9 °F 21.3 °F 30.06 in SW 6.7 mph 11.5 mph 62 % 0.00 in
15:39 33.0 °F 21.4 °F 30.06 in West 5.2 mph 9.2 mph 62 % 0.00 in
15:54 33.3 °F 21.3 °F 30.07 in SW 5.6 mph 14.0 mph 61 % 0.00 in
15:57 33.3 °F 21.7 °F 30.07 in SSW 3.2 mph 14.0 mph 62 % 0.00 in
16:03 33.3 °F 22.4 °F 30.07 in WSW 0.6 mph 10.4 mph 64 % 0.00 in
16:10 33.3 °F 22.8 °F 30.08 in SW 3.8 mph 8.1 mph 65 % 0.00 in
16:15 33.2 °F 23.4 °F 30.08 in WSW 4.1 mph 8.1 mph 67 % 0.00 in
16:18 33.2 °F 23.8 °F 30.07 in West 2.8 mph 7.0 mph 68 % 0.00 in
16:23 33.0 °F 23.6 °F 30.08 in WSW 3.8 mph 5.8 mph 68 % 0.00 in
16:29 32.9 °F 23.8 °F 30.08 in SW 3.1 mph 8.1 mph 69 % 0.00 in
16:35 32.7 °F 24.0 °F 30.08 in West 3.1 mph 5.0 mph 70 % 0.00 in
16:42 32.6 °F 24.2 °F 30.07 in WSW 1.4 mph 3.5 mph 71 % 0.00 in
16:47 32.4 °F 24.0 °F 30.08 in SW 3.8 mph 7.0 mph 71 % 0.00 in
16:53 32.2 °F 24.2 °F 30.07 in WSW 2.5 mph 6.9 mph 72 % 0.00 in
16:59 32.0 °F 24.0 °F 30.07 in WSW 3.1 mph 11.5 mph 72 % 0.00 in
17:10 31.7 °F 24.0 °F 30.07 in SSW 2.9 mph 8.1 mph 73 % 0.00 in
17:14 31.6 °F 24.3 °F 30.07 in SW 3.8 mph 6.0 mph 74 % 0.00 in
17:20 31.5 °F 24.5 °F 30.07 in WSW 3.4 mph 5.8 mph 75 % 0.00 in
17:26 31.4 °F 24.7 °F 30.07 in SW 4.5 mph 4.6 mph 76 % 0.00 in
17:28 31.4 °F 24.7 °F 30.08 in West 1.8 mph 8.1 mph 76 % 0.00 in
17:34 31.2 °F 25.1 °F 30.08 in SW 3.0 mph 7.0 mph 78 % 0.00 in
17:39 31.1 °F 25.0 °F 30.08 in SW 3.0 mph 4.0 mph 78 % 0.00 in
17:40 31.1 °F 25.0 °F 30.08 in SW 1.8 mph 3.5 mph 78 % 0.00 in
17:46 31.0 °F 25.2 °F 30.08 in WSW 2.5 mph 7.0 mph 79 % 0.00 in
17:52 30.8 °F 25.4 °F 30.08 in West 1.3 mph 5.0 mph 80 % 0.00 in
17:53 30.8 °F 25.4 °F 29.83 in West 2.0 mph 4.6 mph 80 % 0.00 in
17:54 30.8 °F 25.4 °F 29.84 in West 1.8 mph 3.5 mph 80 % 0.00 in
17:58 30.7 °F 25.6 °F 30.08 in SW 1.9 mph 6.0 mph 81 % 0.00 in
17:59 30.7 °F 25.6 °F 30.08 in SW 1.9 mph 5.8 mph 81 % 0.00 in
18:01 30.7 °F 25.6 °F 30.08 in SW 2.0 mph 3.5 mph 81 % 0.00 in
18:04 30.7 °F 25.6 °F 30.08 in SW 1.7 mph 4.0 mph 81 % 0.00 in
18:06 30.6 °F 25.5 °F 30.08 in WSW 2.3 mph 3.5 mph 81 % 0.00 in
18:08 30.6 °F 25.8 °F 29.83 in WSW 1.1 mph 5.0 mph 82 % 0.00 in
18:11 30.6 °F 25.8 °F 30.08 in SW 4.1 mph 6.0 mph 82 % 0.00 in
18:12 30.5 °F 25.7 °F 30.08 in WSW 3.6 mph 6.0 mph 82 % 0.00 in
18:15 30.5 °F 25.7 °F 30.08 in West 2.3 mph 4.6 mph 82 % 0.00 in
18:18 30.4 °F 25.6 °F 30.08 in West 3.1 mph 4.0 mph 82 % 0.00 in
18:19 30.4 °F 25.6 °F 30.09 in West 2.4 mph 5.0 mph 82 % 0.00 in
18:24 30.4 °F 25.6 °F 30.08 in SSW 1.5 mph 4.6 mph 82 % 0.00 in
18:28 30.3 °F 25.8 °F 30.08 in WSW 3.0 mph 8.1 mph 83 % 0.00 in
18:30 30.2 °F 25.7 °F 30.08 in SW 3.9 mph 8.0 mph 83 % 0.00 in
18:32 30.2 °F 25.7 °F 30.08 in SW 5.4 mph 8.1 mph 83 % 0.00 in
18:35 30.1 °F 25.6 °F 30.08 in SW 3.2 mph 6.9 mph 83 % 0.00 in
18:37 30.1 °F 25.6 °F 29.84 in SW 3.0 mph 5.8 mph 83 % 0.00 in
18:38 30.1 °F 25.6 °F 29.84 in WSW 3.5 mph 6.0 mph 83 % 0.00 in
18:42 30.1 °F 25.6 °F 30.08 in WSW 2.6 mph 8.1 mph 83 % 0.00 in
18:43 30.0 °F 25.5 °F 30.08 in WSW 2.4 mph 4.6 mph 83 % 0.00 in
18:47 30.0 °F 25.5 °F 29.84 in West 3.9 mph 6.0 mph 83 % 0.00 in
18:48 30.0 °F 25.5 °F 30.08 in WSW 2.8 mph 5.8 mph 83 % 0.00 in
18:50 30.0 °F 25.5 °F 29.84 in WSW 0.6 mph 3.5 mph 83 % 0.00 in
18:52 30.0 °F 25.5 °F 30.09 in WSW 3.8 mph 6.0 mph 83 % 0.00 in
18:53 29.9 °F 25.4 °F 30.08 in SSW 3.5 mph 6.0 mph 83 % 0.00 in
18:59 30.0 °F 25.5 °F 30.08 in WSW 3.4 mph 5.0 mph 83 % 0.00 in
19:03 30.0 °F 25.5 °F 30.08 in WSW 3.7 mph 6.0 mph 83 % 0.00 in
19:05 30.0 °F 25.5 °F 29.84 in WSW 0.5 mph 2.3 mph 83 % 0.00 in
19:08 30.0 °F 25.5 °F 30.08 in SW 2.0 mph 5.0 mph 83 % 0.00 in
19:10 30.0 °F 25.5 °F 29.84 in SW 3.2 mph 7.0 mph 83 % 0.00 in
19:11 30.0 °F 25.5 °F 30.08 in WSW 2.1 mph 4.0 mph 83 % 0.00 in
19:13 30.0 °F 25.5 °F 29.83 in WSW 4.4 mph 6.9 mph 83 % 0.00 in
19:15 30.1 °F 25.6 °F 29.83 in SW 3.3 mph 5.0 mph 83 % 0.00 in
19:16 30.1 °F 25.6 °F 30.08 in SSW 3.0 mph 4.6 mph 83 % 0.00 in
19:17 30.1 °F 25.6 °F 30.08 in SW 2.8 mph 3.5 mph 83 % 0.00 in
19:19 30.1 °F 25.3 °F 30.08 in WSW 2.7 mph 6.9 mph 82 % 0.00 in
19:21 30.1 °F 25.3 °F 30.08 in WSW 3.2 mph 7.0 mph 82 % 0.00 in
19:24 30.1 °F 25.3 °F 30.08 in SW 2.0 mph 6.9 mph 82 % 0.00 in
19:26 30.2 °F 25.4 °F 30.08 in WSW 3.1 mph 6.0 mph 82 % 0.00 in
19:27 30.2 °F 25.4 °F 29.83 in WSW 3.4 mph 3.5 mph 82 % 0.00 in
19:28 30.2 °F 25.4 °F 30.07 in SSW 1.8 mph 5.8 mph 82 % 0.00 in
19:32 30.3 °F 25.2 °F 30.07 in SSW 3.9 mph 7.0 mph 81 % 0.00 in
19:33 30.3 °F 25.2 °F 30.08 in WSW 5.2 mph 6.9 mph 81 % 0.00 in
19:34 30.3 °F 25.2 °F 30.07 in SSW 4.7 mph 9.2 mph 81 % 0.00 in
19:38 30.4 °F 25.3 °F 30.08 in SW 2.5 mph 5.8 mph 81 % 0.00 in
19:40 30.4 °F 25.3 °F 29.83 in SSW 2.7 mph 3.5 mph 81 % 0.00 in
19:42 30.5 °F 25.1 °F 30.08 in WSW 2.8 mph 5.0 mph 80 % 0.00 in
19:46 30.5 °F 25.1 °F 30.07 in SW 5.4 mph 8.0 mph 80 % 0.00 in
19:49 30.6 °F 25.2 °F 29.83 in WSW 4.0 mph 7.0 mph 80 % 0.00 in
19:51 30.6 °F 25.2 °F 30.07 in SW 3.3 mph 4.6 mph 80 % 0.00 in
19:52 30.6 °F 25.2 °F 29.83 in SW 3.4 mph 7.0 mph 80 % 0.00 in
19:56 30.7 °F 25.3 °F 30.08 in SSW 3.0 mph 5.8 mph 80 % 0.00 in
19:57 30.7 °F 25.3 °F 30.08 in SSW 2.7 mph 4.6 mph 80 % 0.00 in
19:58 30.7 °F 25.0 °F 30.08 in WSW 2.8 mph 4.6 mph 79 % 0.00 in
19:59 30.7 °F 25.0 °F 29.83 in South 4.2 mph 6.9 mph 79 % 0.00 in
20:00 30.7 °F 25.0 °F 29.83 in WSW 3.5 mph 6.9 mph 79 % 0.00 in
20:02 30.8 °F 25.1 °F 30.08 in SW 5.9 mph 10.0 mph 79 % 0.00 in
20:03 30.8 °F 25.1 °F 30.08 in WSW 3.5 mph 10.4 mph 79 % 0.00 in
20:04 30.8 °F 25.1 °F 30.07 in SW 3.3 mph 6.9 mph 79 % 0.00 in
20:05 30.8 °F 25.1 °F 30.07 in SSW 3.6 mph 6.9 mph 79 % 0.00 in
20:06 30.8 °F 25.1 °F 30.07 in WSW 5.5 mph 10.4 mph 79 % 0.00 in
20:09 30.9 °F 24.8 °F 30.07 in SW 5.0 mph 9.2 mph 78 % 0.00 in
20:10 30.9 °F 24.8 °F 30.07 in WSW 4.8 mph 10.0 mph 78 % 0.00 in
20:11 30.9 °F 24.8 °F 30.07 in WSW 5.6 mph 10.0 mph 78 % 0.00 in
20:14 30.9 °F 24.8 °F 30.07 in SW 3.0 mph 5.8 mph 78 % 0.00 in
20:15 31.0 °F 24.9 °F 30.07 in SW 1.3 mph 4.6 mph 78 % 0.00 in
20:16 30.9 °F 24.8 °F 30.07 in SSW 3.1 mph 7.0 mph 78 % 0.00 in
20:17 31.0 °F 24.9 °F 30.07 in SW 4.3 mph 8.1 mph 78 % 0.00 in
20:18 31.0 °F 24.9 °F 30.07 in SW 4.0 mph 7.0 mph 78 % 0.00 in
20:20 31.0 °F 24.9 °F 29.83 in SSW 2.8 mph 8.1 mph 78 % 0.00 in
20:23 31.0 °F 24.9 °F 30.07 in SW 3.4 mph 6.9 mph 78 % 0.00 in
20:25 31.0 °F 24.9 °F 30.07 in WSW 4.6 mph 5.8 mph 78 % 0.00 in
20:29 31.1 °F 25.0 °F 30.07 in SW 2.8 mph 5.8 mph 78 % 0.00 in
20:30 31.1 °F 25.0 °F 30.07 in SW 3.1 mph 9.0 mph 78 % 0.00 in
20:32 31.1 °F 25.0 °F 30.07 in SW 5.1 mph 8.0 mph 78 % 0.00 in
20:34 31.1 °F 25.0 °F 29.82 in WSW 3.2 mph 8.1 mph 78 % 0.00 in
20:35 31.2 °F 25.1 °F 30.07 in SW 2.0 mph 5.0 mph 78 % 0.00 in
20:37 31.2 °F 25.1 °F 30.07 in SSW 3.2 mph 6.0 mph 78 % 0.00 in
20:39 31.2 °F 25.1 °F 30.06 in WSW 6.6 mph 7.0 mph 78 % 0.00 in
20:44 31.2 °F 25.1 °F 30.06 in SSW 6.7 mph 12.7 mph 78 % 0.00 in
20:47 31.3 °F 25.2 °F 29.82 in WSW 4.5 mph 8.1 mph 78 % 0.00 in
20:49 31.3 °F 25.2 °F 30.06 in SW 5.3 mph 8.1 mph 78 % 0.00 in
20:50 31.2 °F 25.1 °F 30.06 in WSW 2.9 mph 8.1 mph 78 % 0.00 in
20:51 31.3 °F 25.2 °F 30.06 in WSW 4.5 mph 6.9 mph 78 % 0.00 in
20:52 31.3 °F 25.2 °F 30.06 in SSW 2.9 mph 6.9 mph 78 % 0.00 in
20:54 31.3 °F 25.2 °F 30.06 in SW 2.7 mph 6.0 mph 78 % 0.00 in
20:56 31.3 °F 25.2 °F 30.06 in SSW 4.6 mph 9.2 mph 78 % 0.00 in
20:59 31.4 °F 25.3 °F 29.81 in SSW 3.2 mph 8.1 mph 78 % 0.00 in
21:00 31.4 °F 25.3 °F 29.81 in SW 5.8 mph 8.1 mph 78 % 0.00 in
21:01 31.4 °F 25.3 °F 30.06 in WSW 5.8 mph 8.1 mph 78 % 0.00 in
21:03 31.4 °F 25.3 °F 30.06 in SSW 5.2 mph 7.0 mph 78 % 0.00 in
21:04 31.4 °F 25.3 °F 30.06 in SSW 4.9 mph 8.1 mph 78 % 0.00 in
21:07 31.4 °F 25.3 °F 30.06 in SW 4.4 mph 7.0 mph 78 % 0.00 in
21:11 31.4 °F 25.3 °F 30.05 in SSW 3.1 mph 6.0 mph 78 % 0.00 in
21:12 31.5 °F 25.4 °F 30.05 in SSW 2.3 mph 4.6 mph 78 % 0.00 in
21:14 31.5 °F 25.4 °F 29.81 in SSW 3.1 mph 7.0 mph 78 % 0.00 in
21:20 31.5 °F 25.4 °F 30.05 in WSW 0.7 mph 4.0 mph 78 % 0.00 in
21:23 31.5 °F 25.4 °F 30.06 in West 2.1 mph 6.9 mph 78 % 0.00 in
21:25 31.5 °F 25.4 °F 29.81 in WSW 1.9 mph 4.6 mph 78 % 0.00 in
21:26 31.5 °F 25.4 °F 30.06 in WSW 0.4 mph 4.6 mph 78 % 0.00 in
21:27 31.5 °F 25.4 °F 29.81 in Calm   1.2 mph 78 % 0.00 in
21:28 31.5 °F 25.4 °F 30.06 in SW 2.9 mph 5.8 mph 78 % 0.00 in
21:29 31.5 °F 25.4 °F 29.81 in SW 2.2 mph 4.0 mph 78 % 0.00 in
21:30 31.5 °F 25.4 °F 30.06 in SW 2.1 mph 3.5 mph 78 % 0.00 in
21:31 31.5 °F 25.4 °F 30.06 in West 1.4 mph 5.8 mph 78 % 0.00 in
21:32 31.5 °F 25.4 °F 30.06 in West 1.6 mph 3.5 mph 78 % 0.00 in
21:33 31.5 °F 25.4 °F 30.06 in West 0.1 mph 1.2 mph 78 % 0.00 in
21:34 31.6 °F 25.5 °F 30.06 in WSW 2.2 mph 3.5 mph 78 % 0.00 in
21:35 31.5 °F 25.4 °F 30.07 in WSW 3.4 mph 4.6 mph 78 % 0.00 in
21:36 31.5 °F 25.4 °F 30.06 in WSW 3.0 mph 5.0 mph 78 % 0.00 in
21:37 31.5 °F 25.4 °F 30.06 in WSW 1.7 mph 3.5 mph 78 % 0.00 in
21:38 31.5 °F 25.4 °F 30.06 in West 1.6 mph 4.0 mph 78 % 0.00 in
21:39 31.5 °F 25.4 °F 29.82 in SW 2.7 mph 6.0 mph 78 % 0.00 in
21:40 31.5 °F 25.4 °F 30.06 in SW 3.6 mph 5.8 mph 78 % 0.00 in
21:41 31.5 °F 25.4 °F 30.06 in SW 1.9 mph 5.8 mph 78 % 0.00 in
21:43 31.5 °F 25.4 °F 30.06 in Calm   2.3 mph 78 % 0.00 in
21:44 31.5 °F 25.4 °F 30.06 in WSW 0.6 mph 2.3 mph 78 % 0.00 in
21:45 31.6 °F 25.5 °F 30.06 in WSW 1.0 mph 3.5 mph 78 % 0.00 in
21:46 31.5 °F 25.4 °F 30.06 in SW 1.7 mph 3.5 mph 78 % 0.00 in
21:50 31.5 °F 25.7 °F 30.06 in WSW 4.0 mph 8.0 mph 79 % 0.00 in
21:52 31.5 °F 25.7 °F 30.06 in SW 3.3 mph 5.0 mph 79 % 0.00 in
21:53 31.6 °F 25.8 °F 30.06 in WSW 2.6 mph 5.0 mph 79 % 0.00 in
21:55 31.6 °F 25.8 °F 29.81 in SW 3.0 mph 3.5 mph 79 % 0.00 in
21:56 31.6 °F 25.8 °F 29.81 in SW 1.3 mph 3.5 mph 79 % 0.00 in
21:57 31.5 °F 25.7 °F 30.05 in SSW 3.7 mph 6.9 mph 79 % 0.00 in
21:58 31.5 °F 25.7 °F 30.05 in WSW 4.3 mph 6.9 mph 79 % 0.00 in
21:59 31.6 °F 25.8 °F 30.05 in WSW 4.3 mph 6.9 mph 79 % 0.00 in
22:00 31.6 °F 25.8 °F 29.81 in WSW 2.2 mph 5.8 mph 79 % 0.00 in
22:02 31.6 °F 25.8 °F 30.05 in WSW 1.6 mph 5.8 mph 79 % 0.00 in
22:03 31.6 °F 25.8 °F 30.05 in WSW 3.4 mph 5.8 mph 79 % 0.00 in
22:04 31.6 °F 25.8 °F 30.05 in WSW 1.4 mph 3.5 mph 79 % 0.00 in
22:05 31.6 °F 25.8 °F 30.05 in SW 1.1 mph 4.0 mph 79 % 0.00 in
22:06 31.6 °F 25.8 °F 30.05 in SW 1.2 mph 3.5 mph 79 % 0.00 in
22:07 31.5 °F 25.7 °F 30.05 in WSW 2.7 mph 3.5 mph 79 % 0.00 in
22:08 31.6 °F 25.8 °F 30.05 in WSW 2.3 mph 4.6 mph 79 % 0.00 in
22:09 31.6 °F 25.8 °F 30.05 in SW 1.0 mph 3.5 mph 79 % 0.00 in
22:10 31.6 °F 25.8 °F 30.05 in SSW 1.8 mph 6.0 mph 79 % 0.00 in
22:11 31.5 °F 25.7 °F 30.05 in SSW 2.7 mph 5.8 mph 79 % 0.00 in
22:12 31.6 °F 25.8 °F 30.05 in SSW 1.1 mph 5.8 mph 79 % 0.00 in
22:13 31.6 °F 25.8 °F 30.05 in WSW 2.3 mph 3.5 mph 79 % 0.00 in
22:14 31.6 °F 25.8 °F 30.05 in SW 1.7 mph 4.6 mph 79 % 0.00 in
22:15 31.6 °F 25.8 °F 29.81 in WSW 1.3 mph 3.5 mph 79 % 0.00 in
22:16 31.6 °F 25.8 °F 30.05 in West 2.0 mph 3.5 mph 79 % 0.00 in
22:17 31.6 °F 25.8 °F 30.05 in West 2.2 mph 4.6 mph 79 % 0.00 in
22:18 31.6 °F 25.8 °F 30.05 in West 0.4 mph 5.8 mph 79 % 0.00 in
22:19 31.6 °F 25.8 °F 30.05 in WSW 1.4 mph 5.8 mph 79 % 0.00 in
22:20 31.6 °F 25.8 °F 30.05 in SW 2.8 mph 5.0 mph 79 % 0.00 in
22:21 31.6 °F 25.8 °F 30.05 in WSW 2.6 mph 4.6 mph 79 % 0.00 in
22:22 31.6 °F 25.8 °F 30.04 in SW 2.0 mph 4.0 mph 79 % 0.00 in
22:23 31.6 °F 25.8 °F 30.04 in SW 2.2 mph 4.6 mph 79 % 0.00 in
22:24 31.6 °F 25.8 °F 30.04 in SW 2.9 mph 4.6 mph 79 % 0.00 in
22:25 31.6 °F 25.8 °F 30.04 in SW 3.0 mph 4.0 mph 79 % 0.00 in
22:26 31.6 °F 25.8 °F 30.04 in WSW 3.8 mph 5.0 mph 79 % 0.00 in
22:27 31.6 °F 25.8 °F 30.04 in SW 1.8 mph 4.6 mph 79 % 0.00 in
22:28 31.6 °F 25.8 °F 30.04 in WSW 2.4 mph 4.6 mph 79 % 0.00 in
22:29 31.6 °F 25.8 °F 30.04 in West 3.9 mph 5.8 mph 79 % 0.00 in
22:30 31.6 °F 25.8 °F 30.04 in West 3.2 mph 5.8 mph 79 % 0.00 in
22:32 31.6 °F 25.8 °F 30.04 in SW 1.1 mph 5.0 mph 79 % 0.00 in
22:33 31.6 °F 25.8 °F 30.04 in WSW 2.0 mph 4.6 mph 79 % 0.00 in
22:34 31.6 °F 25.8 °F 30.04 in WSW 0.7 mph 4.6 mph 79 % 0.00 in
22:37 31.6 °F 25.8 °F 30.05 in WSW 3.0 mph 5.0 mph 79 % 0.00 in
22:38 31.6 °F 25.8 °F 30.05 in SW 1.3 mph 3.5 mph 79 % 0.00 in
22:41 31.6 °F 25.8 °F 30.04 in WSW 1.0 mph 4.0 mph 79 % 0.00 in
22:42 31.6 °F 25.8 °F 30.04 in SW 0.1 mph 2.0 mph 79 % 0.00 in
22:43 31.6 °F 25.8 °F 30.04 in WSW 3.0 mph 5.0 mph 79 % 0.00 in
22:47 31.6 °F 25.8 °F 30.05 in SW 0.9 mph 3.5 mph 79 % 0.00 in
22:48 31.6 °F 25.8 °F 30.05 in WSW 2.8 mph 5.0 mph 79 % 0.00 in
22:49 31.6 °F 25.8 °F 30.05 in SW 4.0 mph 4.6 mph 79 % 0.00 in
22:50 31.6 °F 25.8 °F 30.05 in WSW 1.1 mph 6.9 mph 79 % 0.00 in
22:51 31.6 °F 25.8 °F 30.05 in WSW 0.8 mph 3.5 mph 79 % 0.00 in
22:56 31.6 °F 25.8 °F 30.04 in SW 3.1 mph 5.8 mph 79 % 0.00 in
22:58 31.6 °F 25.8 °F 30.04 in SW 3.4 mph 9.2 mph 79 % 0.00 in
22:59 31.6 °F 25.8 °F 30.05 in WSW 3.1 mph 3.5 mph 79 % 0.00 in
23:00 31.6 °F 25.8 °F 29.80 in WNW 2.1 mph 3.5 mph 79 % 0.00 in
23:02 31.6 °F 25.8 °F 30.04 in SW 2.1 mph 4.0 mph 79 % 0.00 in
23:05 31.7 °F 25.9 °F 30.04 in WSW 1.4 mph 5.8 mph 79 % 0.00 in
23:07 31.7 °F 25.9 °F 30.04 in South 2.4 mph 6.0 mph 79 % 0.00 in
23:08 31.7 °F 25.9 °F 30.04 in WNW 3.8 mph 5.8 mph 79 % 0.00 in
23:10 31.7 °F 26.2 °F 30.04 in WSW 3.2 mph 9.0 mph 80 % 0.00 in
23:11 31.7 °F 26.2 °F 29.80 in WSW 4.7 mph 5.0 mph 80 % 0.00 in
23:12 31.7 °F 26.2 °F 30.04 in SW 3.6 mph 8.1 mph 80 % 0.00 in
23:15 31.7 °F 26.2 °F 30.04 in WSW 4.6 mph 9.2 mph 80 % 0.00 in
23:17 31.7 °F 26.2 °F 30.04 in SSW 2.2 mph 9.2 mph 80 % 0.00 in
23:18 31.7 °F 26.2 °F 30.03 in SW 1.8 mph 4.6 mph 80 % 0.00 in
23:19 31.7 °F 26.2 °F 30.04 in West 5.7 mph 9.2 mph 80 % 0.00 in
23:20 31.7 °F 25.9 °F 30.03 in West 4.6 mph 11.5 mph 79 % 0.00 in
23:24 31.8 °F 26.0 °F 30.03 in WSW 4.8 mph 10.4 mph 79 % 0.00 in
23:26 31.8 °F 26.0 °F 30.03 in WSW 5.0 mph 10.0 mph 79 % 0.00 in
23:27 31.8 °F 26.3 °F 30.03 in SW 4.9 mph 8.1 mph 80 % 0.00 in
23:28 31.8 °F 26.0 °F 29.78 in South 2.6 mph 6.9 mph 79 % 0.00 in
23:29 31.8 °F 26.3 °F 30.03 in WSW 5.0 mph 9.2 mph 80 % 0.00 in
23:30 31.8 °F 26.3 °F 30.02 in SW 3.8 mph 8.1 mph 80 % 0.00 in
23:31 31.8 °F 26.3 °F 30.03 in SW 3.9 mph 9.0 mph 80 % 0.00 in
23:32 31.8 °F 26.3 °F 30.02 in SW 6.2 mph 8.1 mph 80 % 0.00 in
23:36 31.9 °F 26.1 °F 30.02 in WSW 4.5 mph 9.2 mph 79 % 0.00 in
23:37 31.9 °F 26.1 °F 30.02 in SW 3.0 mph 9.2 mph 79 % 0.00 in
23:38 31.8 °F 26.0 °F 30.02 in West 4.4 mph 6.0 mph 79 % 0.00 in
23:39 31.8 °F 26.0 °F 30.02 in WSW 4.3 mph 5.8 mph 79 % 0.00 in
23:41 31.9 °F 26.1 °F 30.02 in SW 5.0 mph 5.0 mph 79 % 0.00 in
23:43 31.9 °F 26.1 °F 30.02 in WSW 3.5 mph 8.1 mph 79 % 0.00 in
23:44 31.9 °F 26.1 °F 29.77 in SSW 4.8 mph 9.0 mph 79 % 0.00 in
23:46 31.9 °F 26.1 °F 30.01 in SSW 2.8 mph 6.9 mph 79 % 0.00 in
23:47 31.9 °F 26.1 °F 30.01 in WSW 4.3 mph 9.0 mph 79 % 0.00 in
23:48 31.9 °F 26.1 °F 30.01 in SW 3.1 mph 6.9 mph 79 % 0.00 in
23:50 31.9 °F 26.1 °F 30.01 in South 5.6 mph 9.2 mph 79 % 0.00 in
23:51 31.9 °F 26.1 °F 30.01 in SW 6.0 mph 10.0 mph 79 % 0.00 in
23:54 31.9 °F 26.1 °F 30.01 in WSW 5.0 mph 11.5 mph 79 % 0.00 in
23:55 31.9 °F 26.1 °F 30.01 in WSW 5.4 mph 11.5 mph 79 % 0.00 in
23:56 31.9 °F 26.1 °F 29.77 in SW 6.0 mph 12.0 mph 79 % 0.00 in
23:58 31.9 °F 26.1 °F 30.01 in WSW 6.1 mph 9.2 mph 79 % 0.00 in
23:59 32.0 °F 26.2 °F 30.01 in WSW 5.0 mph 9.2 mph 79 % 0.00 in
Crab Meadow Weather
Compliments of Weather Underground - 3.5 mb

Script developed by  Jim McMurry - jmcmurry@mwt.net Adapted for the template by  Wim van der Kuil - Leuven-Template.eu

Weather Terms: High Wind Warning - Sustained winds of 40 mph or greater for a duration of one hour or longer or gusts to 58 mph or greater.